Wise, VA

3:08 PM EDT on May 22, 2017 (GMT -0400)
Lonesome Pine

Weather History for KLNP - October, 2010

Change the Weather History Date:

Sunday, October 3, 2010

  Actual Average Record
Temperature  
Mean Temperature 47 °F -  
Max Temperature 50 °F 66 °F 82 °F (2005)
Min Temperature 44 °F 47 °F 28 °F (2003)
Degree Days  
Heating Degree Days 18    
Moisture  
Dew Point 43 °F    
Average Humidity 90    
Maximum Humidity 100    
Minimum Humidity 81    
Precipitation  
Precipitation 0.00 in - - ()
Sea Level Pressure  
Sea Level Pressure 30.08 in    
Wind  
Wind Speed 6 mph (NNW)    
Max Wind Speed 9 mph    
Max Gust Speed -    
Visibility 9 miles    
Events      
Averages and records for this station are not official NWS values.
T = Trace of Precipitation, MM = Missing Value Source: NWS Daily Summary

Daily Weather History Graph

Daily Weather History Graph

Search for Another Location

Airport or City:

Trip Planner

Search our weather history database for the weather conditions in past years. The results will help you decide how hot, cold, wet, or windy it might be!

Date:

Astronomy

Oct. 03, 2010 Rise Set
Actual Time 7:27 AM EDT 7:10 PM EDT
Civil Twilight 7:01 AM EDT 7:36 PM EDT
Nautical Twilight 6:31 AM EDT 8:06 PM EDT
Astronomical Twilight 6:00 AM EDT 8:36 PM EDT
Moon 2:28 AM EDT (10/3) 4:28 PM EDT (10/3)
Length of Visible Light 12h 35m
Length of Day
11h 43m
Waning Crescent, 23% of the Moon is Illuminated
Oct 3
Waning Crescent
Oct 7
New
Oct 14
First Quarter
Oct 22
Full
Oct 30
Last Quarter

Hourly Weather History & Observations

Time (EDT) Temp. Windchill Dew Point Humidity Pressure Visibility Wind Dir Wind Speed Gust Speed Precip Events Conditions
12:00 AM 50.0 °F - 44.6 °F 82% 30.04 in 10.0 mi NW 5.8 mph - N/A   Clear
12:20 AM 48.2 °F - 44.6 °F 87% 30.04 in 10.0 mi NNW 6.9 mph - N/A   Mostly Cloudy
12:40 AM 48.2 °F - 44.6 °F 87% 30.04 in 10.0 mi NNW 5.8 mph - N/A   Scattered Clouds
1:00 AM 48.2 °F - 44.6 °F 87% 30.03 in 10.0 mi NNW 5.8 mph - N/A   Scattered Clouds
1:20 AM 48.2 °F - 42.8 °F 82% 30.02 in 10.0 mi North 5.8 mph - N/A   Overcast
1:40 AM 48.2 °F - 42.8 °F 82% 30.03 in 10.0 mi North 3.5 mph - N/A   Mostly Cloudy
2:00 AM 48.2 °F - 42.8 °F 82% 30.03 in 10.0 mi NNW 5.8 mph - N/A   Scattered Clouds
2:40 AM 46.4 °F 44.3 °F 42.8 °F 87% 30.03 in 10.0 mi North 4.6 mph - N/A   Mostly Cloudy
3:00 AM 46.4 °F 43.5 °F 42.8 °F 87% 30.03 in 10.0 mi North 5.8 mph - N/A   Overcast
3:20 AM 46.4 °F 44.3 °F 42.8 °F 87% 30.03 in 10.0 mi North 4.6 mph - N/A   Overcast
3:40 AM 46.4 °F 44.3 °F 42.8 °F 87% 30.02 in 10.0 mi NNW 4.6 mph - N/A   Overcast
4:00 AM 46.4 °F 45.2 °F 42.8 °F 87% 30.02 in 10.0 mi North 3.5 mph - N/A   Overcast
4:20 AM 46.4 °F 44.3 °F 42.8 °F 87% 30.02 in 10.0 mi NNW 4.6 mph - N/A   Overcast
4:40 AM 46.4 °F 45.2 °F 42.8 °F 87% 30.02 in 10.0 mi NNW 3.5 mph - N/A   Overcast
5:00 AM 46.4 °F 44.3 °F 44.6 °F 93% 30.03 in 10.0 mi NNW 4.6 mph - N/A   Overcast
5:20 AM 46.4 °F 44.3 °F 44.6 °F 93% 30.03 in 10.0 mi NNW 4.6 mph - N/A   Overcast
5:40 AM 46.4 °F 44.3 °F 44.6 °F 93% 30.03 in 10.0 mi NNW 4.6 mph - N/A   Overcast
6:00 AM 46.4 °F 44.3 °F 44.6 °F 93% 30.03 in 10.0 mi NW 4.6 mph - N/A   Overcast
6:20 AM 46.4 °F - 44.6 °F 93% 30.04 in 10.0 mi Calm Calm - N/A   Overcast
6:40 AM 46.4 °F 42.9 °F 44.6 °F 93% 30.04 in 10.0 mi NNW 6.9 mph - N/A   Overcast
7:00 AM 46.4 °F 44.3 °F 44.6 °F 93% 30.05 in 10.0 mi North 4.6 mph - N/A   Overcast
7:20 AM 46.4 °F 45.2 °F 44.6 °F 93% 30.05 in 10.0 mi NNW 3.5 mph - N/A   Overcast
8:00 AM 46.4 °F 42.9 °F 44.6 °F 93% 30.06 in 3.0 mi NNW 6.9 mph - N/A   Overcast
8:20 AM 46.4 °F 42.4 °F 44.6 °F 93% 30.07 in 1.5 mi NNW 8.1 mph - N/A   Overcast
8:40 AM 44.6 °F 40.7 °F 44.6 °F 100% 30.07 in 1.2 mi NNW 6.9 mph - N/A   Overcast
9:00 AM 44.6 °F 40.7 °F 42.8 °F 93% 30.08 in 0.8 mi NNW 6.9 mph - N/A   Overcast
9:20 AM 44.6 °F 40.2 °F 44.6 °F 100% 30.09 in 1.0 mi NNW 8.1 mph - N/A   Overcast
9:40 AM 44.6 °F 41.4 °F 44.6 °F 100% 30.10 in 2.0 mi NNW 5.8 mph - N/A   Overcast
10:00 AM 44.6 °F 39.7 °F 44.6 °F 100% 30.10 in 10.0 mi NNW 9.2 mph - N/A   Overcast
10:20 AM 44.6 °F 40.2 °F 42.8 °F 93% 30.10 in 7.0 mi North 8.1 mph - N/A   Overcast
10:40 AM 44.6 °F 40.7 °F 42.8 °F 93% 30.11 in 10.0 mi NNW 6.9 mph - N/A   Overcast
11:00 AM 44.6 °F 41.4 °F 42.8 °F 93% 30.11 in 10.0 mi NNW 5.8 mph - N/A   Overcast
11:20 AM 44.6 °F 42.2 °F 44.6 °F 100% 30.11 in 10.0 mi NW 4.6 mph - N/A   Overcast
11:40 AM 44.6 °F 40.2 °F 44.6 °F 100% 30.12 in 7.0 mi NW 8.1 mph - N/A   Overcast
12:00 PM 44.6 °F 41.4 °F 42.8 °F 93% 30.12 in 10.0 mi NNW 5.8 mph - N/A   Overcast
12:20 PM 44.6 °F 42.2 °F 42.8 °F 93% 30.12 in 10.0 mi NW 4.6 mph - N/A   Overcast
12:40 PM 44.6 °F 41.4 °F 42.8 °F 93% 30.12 in 10.0 mi NW 5.8 mph - N/A   Overcast
1:00 PM 46.4 °F 45.2 °F 42.8 °F 87% 30.12 in 10.0 mi NNW 3.5 mph - N/A   Overcast
1:20 PM 46.4 °F 43.5 °F 42.8 °F 87% 30.12 in 10.0 mi NNW 5.8 mph - N/A   Overcast
1:40 PM 46.4 °F 45.2 °F 42.8 °F 87% 30.12 in 10.0 mi NNW 3.5 mph - N/A   Overcast
2:00 PM 46.4 °F 44.3 °F 42.8 °F 87% 30.11 in 10.0 mi NW 4.6 mph - N/A   Overcast
2:20 PM 46.4 °F 45.2 °F 42.8 °F 87% 30.11 in 10.0 mi NNW 3.5 mph - N/A   Overcast
2:40 PM 46.4 °F 43.5 °F 44.6 °F 93% 30.10 in 10.0 mi North 5.8 mph - N/A   Overcast
3:00 PM 46.4 °F 42.9 °F 42.8 °F 87% 30.10 in 10.0 mi NW 6.9 mph - N/A   Overcast
3:20 PM 46.4 °F 43.5 °F 42.8 °F 87% 30.11 in 10.0 mi WNW 5.8 mph - N/A   Overcast
3:40 PM 46.4 °F 42.9 °F 42.8 °F 87% 30.11 in 10.0 mi WNW 6.9 mph - N/A   Overcast
4:20 PM 46.4 °F 44.3 °F 42.8 °F 87% 30.11 in 10.0 mi NW 4.6 mph - N/A   Overcast
4:40 PM 46.4 °F 42.4 °F 42.8 °F 87% 30.11 in 10.0 mi WNW 8.1 mph - N/A   Overcast
5:00 PM 46.4 °F 42.9 °F 41.0 °F 81% 30.11 in 10.0 mi NW 6.9 mph - N/A   Overcast
5:20 PM 46.4 °F 42.9 °F 41.0 °F 81% 30.12 in 10.0 mi WNW 6.9 mph - N/A   Overcast
5:40 PM 46.4 °F 43.5 °F 42.8 °F 87% 30.12 in 10.0 mi NW 5.8 mph - N/A   Overcast
6:00 PM 46.4 °F 42.4 °F 42.8 °F 87% 30.12 in 10.0 mi WNW 8.1 mph - N/A   Overcast
6:20 PM 46.4 °F 43.5 °F 41.0 °F 81% 30.13 in 10.0 mi WNW 5.8 mph - N/A   Overcast
6:40 PM 44.6 °F 40.2 °F 42.8 °F 93% 30.13 in 10.0 mi NW 8.1 mph - N/A   Overcast
7:00 PM 44.6 °F 40.7 °F 42.8 °F 93% 30.14 in 10.0 mi NW 6.9 mph - N/A   Overcast
7:20 PM 44.6 °F 40.7 °F 42.8 °F 93% 30.14 in 10.0 mi NNW 6.9 mph - N/A   Overcast
7:40 PM 44.6 °F 41.4 °F 42.8 °F 93% 30.14 in 10.0 mi NW 5.8 mph - N/A   Overcast
8:00 PM 44.6 °F 40.2 °F 42.8 °F 93% 30.14 in 10.0 mi NNW 8.1 mph - N/A   Overcast
8:20 PM 44.6 °F 43.1 °F 42.8 °F 93% 30.15 in 10.0 mi NW 3.5 mph - N/A   Overcast
9:00 PM 42.8 °F 40.1 °F 42.8 °F 100% 30.16 in 4.0 mi WNW 4.6 mph - N/A   Overcast
9:20 PM 42.8 °F 39.3 °F 42.8 °F 100% 30.17 in 10.0 mi NW 5.8 mph - N/A   Overcast
9:40 PM 42.8 °F 41.1 °F 42.8 °F 100% 30.17 in 7.0 mi NW 3.5 mph - N/A   Overcast
10:00 PM 42.8 °F 41.1 °F 42.8 °F 100% 30.17 in 10.0 mi NW 3.5 mph - N/A   Overcast
10:20 PM 42.8 °F 41.1 °F 42.8 °F 100% 30.17 in 2.5 mi NW 3.5 mph - N/A   Overcast
10:40 PM 42.8 °F 41.1 °F 42.8 °F 100% 30.17 in 10.0 mi NNW 3.5 mph - N/A   Overcast
11:00 PM 42.8 °F 41.1 °F 42.8 °F 100% 30.17 in 5.0 mi WNW 3.5 mph - N/A   Overcast
11:20 PM 42.8 °F 39.3 °F 42.8 °F 100% 30.17 in 10.0 mi NW 5.8 mph - N/A   Overcast
11:40 PM 42.8 °F 40.1 °F 42.8 °F 100% 30.17 in 10.0 mi NW 4.6 mph - N/A   Overcast